Location: Dumpton Point
(51.3500°N, 1.4433°E)
Time: 15:00:34
(UTC+00:00)

A-11 Canister half - Pass Details

Date: 05 December 2023
Orbit: 1526 x 1682 km, 47.3° (Epoch: 01 March)

Event Time Altitude Azimuth Distance (km) Brightness Sun altitude
Rises 18:02:59 0° 208° (SSW) 4,914 12.2 -20.1°
Reaches altitude 10° 18:06:31 10° 199° (SSW) 3,935 11.5 -20.6°
Maximum altitude 18:15:11 34° 140° (SE) 2,521 9.8 -22.0°
Enters shadow 18:18:18 28° 109° (ESE) 2,747 9.8 -22.4°
